7 * 24
多渠道服务支持
IRIDIUM 4 是 Iridium 卫星通信系统中的一颗低轨卫星,属于 Iridium NEXT 计划的一部分。该卫星由 SpaceX 发射,旨在提供全球范围内的语音和数据通信服务。IRIDIUM 4 运行在约 780 公里的高度,采用先进通信技术,支持航空、航海及偏远地区用户。该系统由 66 颗工作卫星组成,具备高可靠性和抗干扰能力,广泛应用于应急通信、国防及商业领域。IRIDIUM 4 的部署提升了全球通信的覆盖与服务质量。
美国
(US)
| 数据来源 | 国际轨道数据 |
| 星历时间: | 2025-10-28T20:28:15+0800 19小时前 查看轨道信息 |
| 半长轴: | 7146.734km |
| 偏心率: | 0.0002236 |
| 轨道倾角: | 86.392° |
| 近地点辐角 | 87.847° |
| 升交点赤经 | 117.854° |
| 平近点角 | 272.298° |
| 近地点: | 767km |
| 远地点: | 770.198km |
| 周期: | 100.212分钟 |
| 每日圈数: | 14.369491 |